Showing default

GALILEO 32 (137), 61182

Orbit data source: Space-Track

GALILEO 32 (137), 61182 is a payload satellite owned by EU SPA (ESA) that was launched on Tue, 17 Sep 2024 UTC via an FALCON 9 launch vehicle from the Air Force Eastern Test Range (AFETR). Payload-class satellites include a variety of spacecraft equipped with specific instruments for various scientific and technological missions. These include communications satellites like Starlink; space stations such as the ISS; scientific satellites like the Hubble; Earth observation satellites from companies like Planet Labs, Umbra, and HawkEye 360; GPS; miniature CubeSats for education and research; and military/defense satellites.

Loading next visibility...
Identifier
61182, 2024-167A
Orbit
Active
Country
Flag of ESAESA
Related business
Manufacturer
OHB
Mission
Operational Civil Navigation
Bus & Motor
GALILEO, AOCS
Mass
733 kg wet, 660 kg dry
Launch date (UTC)
2024-09-17 (2 years ago)
Launch vehicle
FALCON 9
Launch site
Air Force Eastern Test Range (AFETR)
Object type
Payload
Rocket body
Debris
Shape & HBR
Box + 2 Pan, 7.3 m
Radar Cross Section
9.223 m², Large (>1 m²)

Expand to show TLE details & history
Last TLE update: 1 day ago

TLE from 1 day ago
0 GALILEO 32 (137)
1 61182U 24167A   26170.64937270  .00000026  00000-0  00000-0 0  9990
2 61182  55.1842 221.2460 0006186 227.8981 171.9033  1.70474331 10926
Epoch: 2026-06-19T15:35Z
TLE epoch observation values (Epoch: 2026-06-19T15:35:05.801Z)
Latitude
31.69121°
Longitude
105.00723°
Altitude
23,242.32 km
Speed
3.668 km/s
True Right ascension
16h 26m 37s
True Declination
31° 39' 15"
Sunlit
Object was in daylight at epoch
Visualization orbit readout
Latitude
Unknown
Longitude
Unknown
Altitude
Unknown
Speed
Unknown
Apparent Right ascension
Unknown
Apparent Declination
Unknown
Sunlit
N/A
Visualization observer readout
Local Sidereal Time
07:17:43
Azimuth
Unknown
Elevation
Unknown
Doppler factor
Unknown
Orbital elements
Apogee altitude
23,240.457 km
Perigee altitude
23,203.836 km
Semi-major axis
29,600.283 km
Eccentricity
0.00062
Inclination
55.1842°
RAAN
221.246°
Arg. of periapsis
227.8981°
True anomaly
171.91328°
Mean anomaly
171.9033°
Eccentric anomaly
171.90829°
Mean motion
0.42619 °/min
Orbital period
844.7 mins
BSTAR
0
Loading maneuver chart data...
Computing Atmospheric mass density...
Loading historical data...
Loading historical data...
Loading historical data...
Loading historical data...
Loading historical data...
Loading historical data...
Loading historical data...
Other satellites on launch #167 in the year 2024 (2024-09-17 UTC)

Documentation

Showing up to 5 results
|